Find Starlink 30935

NORAD ID: 58455 Int'l Des: 2023-183 Owner: SPXS Country: US Constellation: starlink operational
LEOCIRCULAR

Live-Position

3D-Globus wird geladen...

Über Starlink 30935

Beschreibung wird geladen...

Nächste Überflüge

Passes for default location (London). Set your location on the main map for personalized predictions.

Höhenverlauf

Loading altitude history...

Zweizeiliger Elementsatz

1 58455U 23183U 26121.66875389 .00007531 00000-0 28274-3 0 9990
2 58455 43.0027 102.6838 0001305 258.4382 101.6324 15.27600691134837
Epoch: 1. Mai 2026 • Age: 9 hours

Aktueller Status

Höhe 486.3 km
Geschwindigkeit 7.62 km/s
Subsatellitenpunkt -18.36°S, 69.4°E
Startdatum 28. Nov. 2023
Alter 2.4 years
Typ internet

Technische Details

Klassifizierung Payload
Masse 730.00 kg
Trockenmasse 700.00 kg
Gesamtmasse 730.00 kg
Länge 0.30 m
Durchmesser 4.10 m
Spannweite 29.00 m
Form Box + pan
Hersteller SPXS
Bus-Typ Starlink V2M
Phasenstatus In Orbit
Besitzer/Staat SPXS/US

Most Searched